Time,TemperatureF,DewpointF,PressureIn,WindDirection,WindDirectionDegrees,WindSpeedMPH,WindSpeedGustMPH,Humidity,HourlyPrecipIn,Conditions,Clouds,dailyrainin,SoftwareType,DateUTC
2013-07-19 00:52:00,76.0,73.0,30.08,West,264,0.0,0.0,91,0.00,,,0.00,,2013-07-19 04:52:00,
2013-07-19 01:02:00,75.0,72.0,30.08,West,264,0.0,0.0,91,0.00,,,0.00,,2013-07-19 05:02:00,
2013-07-19 01:53:00,74.0,72.0,30.08,West,264,0.0,0.0,93,0.00,,,0.00,,2013-07-19 05:53:00,
2013-07-19 02:01:00,74.0,72.0,30.08,West,264,0.0,0.0,94,0.00,,,0.00,,2013-07-19 06:01:00,
2013-07-19 02:52:00,74.0,72.0,30.07,West,264,0.0,0.0,95,0.00,,,0.00,,2013-07-19 06:52:00,
2013-07-19 03:12:00,74.0,72.0,30.08,West,264,0.0,0.0,95,0.00,,,0.00,,2013-07-19 07:12:00,
2013-07-19 03:33:00,73.0,72.0,30.07,West,264,0.0,0.0,96,0.00,,,0.00,,2013-07-19 07:33:00,
2013-07-19 03:43:00,73.0,72.0,30.07,West,264,0.0,0.0,96,0.00,,,0.00,,2013-07-19 07:43:00,
2013-07-19 03:53:00,73.0,72.0,30.07,West,264,0.0,0.0,96,0.00,,,0.00,,2013-07-19 07:53:00,
2013-07-19 04:01:00,73.0,72.0,30.06,West,264,0.0,0.0,96,0.00,,,0.00,,2013-07-19 08:01:00,
2013-07-19 04:12:00,73.0,72.0,30.06,West,264,0.0,0.0,96,0.00,,,0.00,,2013-07-19 08:12:00,
2013-07-19 04:33:00,73.0,72.0,30.06,West,264,0.0,0.0,96,0.00,,,0.00,,2013-07-19 08:33:00,
2013-07-19 04:43:00,73.0,72.0,30.06,West,264,0.0,0.0,96,0.00,,,0.00,,2013-07-19 08:43:00,
2013-07-19 04:52:00,73.0,72.0,30.06,West,264,0.0,0.0,96,0.00,,,0.00,,2013-07-19 08:52:00,
2013-07-19 05:02:00,73.0,72.0,30.06,West,264,0.0,0.0,96,0.00,,,0.00,,2013-07-19 09:02:00,
2013-07-19 05:32:00,73.0,72.0,30.06,West,264,0.0,0.0,96,0.00,,,0.00,,2013-07-19 09:32:00,
2013-07-19 06:32:00,74.0,73.0,30.06,West,267,0.0,3.0,96,0.00,,,0.00,,2013-07-19 10:32:00,
2013-07-19 06:43:00,74.0,73.0,30.05,West,267,0.0,2.0,96,0.00,,,0.00,,2013-07-19 10:43:00,
2013-07-19 06:52:00,74.0,73.0,30.05,West,267,0.0,2.0,96,0.00,,,0.00,,2013-07-19 10:52:00,
2013-07-19 07:33:00,75.0,73.0,30.05,SW,232,0.0,1.0,95,0.00,,,0.00,,2013-07-19 11:33:00,
2013-07-19 08:33:00,77.0,74.0,30.05,West,267,0.0,2.0,92,0.00,,,0.00,,2013-07-19 12:33:00,
2013-07-19 08:52:00,78.0,74.0,30.06,SE,146,0.0,3.0,89,0.00,,,0.00,,2013-07-19 12:52:00,
2013-07-19 09:02:00,78.0,74.0,30.06,SW,218,1.0,5.0,88,0.00,,,0.00,,2013-07-19 13:02:00,
2013-07-19 09:53:00,81.0,76.0,30.06,WSW,238,2.0,7.0,84,0.00,,,0.00,,2013-07-19 13:53:00,
2013-07-19 10:43:00,84.0,76.0,30.05,WNW,291,2.0,8.0,78,0.00,,,0.00,,2013-07-19 14:43:00,
2013-07-19 10:52:00,85.0,77.0,30.05,SSE,149,2.0,8.0,77,0.00,,,0.00,,2013-07-19 14:52:00,
2013-07-19 11:02:00,85.0,76.0,30.05,SSW,204,2.0,8.0,75,0.00,,,0.00,,2013-07-19 15:02:00,
2013-07-19 11:11:00,85.0,76.0,30.05,WNW,287,3.0,6.0,74,0.00,,,0.00,,2013-07-19 15:11:00,
2013-07-19 11:32:00,86.0,76.0,30.05,WSW,250,2.0,6.0,73,0.00,,,0.00,,2013-07-19 15:32:00,
2013-07-19 12:01:00,87.0,76.0,30.04,WNW,288,2.0,6.0,70,0.00,,,0.00,,2013-07-19 16:01:00,
2013-07-19 12:11:00,87.0,75.0,30.04,WNW,298,2.0,6.0,68,0.00,,,0.00,,2013-07-19 16:11:00,
2013-07-19 12:43:00,87.0,74.0,30.03,SW,223,2.0,7.0,66,0.00,,,0.00,,2013-07-19 16:43:00,
2013-07-19 12:52:00,87.0,74.0,30.03,WNW,289,3.0,7.0,66,0.00,,,0.00,,2013-07-19 16:52:00,
2013-07-19 13:43:00,88.0,74.0,30.01,West,259,5.0,9.0,63,0.00,,,0.00,,2013-07-19 17:43:00,
2013-07-19 13:52:00,88.0,75.0,30.01,WNW,290,3.0,9.0,65,0.00,,,0.00,,2013-07-19 17:52:00,
2013-07-19 14:32:00,86.0,74.0,29.98,NW,309,0.0,6.0,68,0.00,,,0.00,,2013-07-19 18:32:00,
2013-07-19 14:42:00,87.0,75.0,29.98,WNW,289,2.0,6.0,68,0.00,,,0.00,,2013-07-19 18:42:00,
2013-07-19 14:52:00,86.0,74.0,29.98,South,185,1.0,6.0,68,0.00,,,0.00,,2013-07-19 18:52:00,
2013-07-19 16:01:00,81.0,73.0,29.97,East,85,2.0,6.0,77,0.00,,,0.05,,2013-07-19 20:01:00,
2013-07-19 16:11:00,81.0,73.0,29.97,SE,137,0.0,4.0,76,0.00,,,0.05,,2013-07-19 20:11:00,
2013-07-19 16:43:00,81.0,73.0,29.97,WSW,245,1.0,4.0,78,0.00,,,0.05,,2013-07-19 20:43:00,
2013-07-19 17:01:00,80.0,74.0,29.96,West,272,1.0,5.0,81,0.00,,,0.05,,2013-07-19 21:01:00,
2013-07-19 17:52:00,80.0,74.0,29.94,SSW,211,1.0,5.0,81,0.00,,,0.05,,2013-07-19 21:52:00,
2013-07-19 18:32:00,80.0,73.0,29.97,East,87,3.0,8.0,79,0.00,,,0.05,,2013-07-19 22:32:00,
2013-07-19 18:52:00,79.0,73.0,29.99,West,269,4.0,7.0,81,0.00,,,0.05,,2013-07-19 22:52:00,
2013-07-19 19:01:00,78.0,71.0,29.99,NW,312,3.0,11.0,79,0.00,,,0.05,,2013-07-19 23:01:00,
2013-07-19 19:11:00,78.0,71.0,29.99,WNW,291,5.0,11.0,78,0.00,,,0.05,,2013-07-19 23:11:00,
2013-07-19 19:33:00,77.0,70.0,29.99,West,260,1.0,5.0,78,0.00,,,0.05,,2013-07-19 23:33:00,
2013-07-19 19:52:00,76.0,70.0,29.96,West,267,1.0,3.0,81,0.00,,,0.05,,2013-07-19 23:52:00,
2013-07-19 20:01:00,75.0,70.0,29.94,WNW,290,0.0,3.0,84,0.01,,,0.06,,2013-07-20 00:01:00,
2013-07-19 20:11:00,74.0,69.0,29.94,WNW,291,1.0,2.0,85,0.01,,,0.06,,2013-07-20 00:11:00,
2013-07-19 20:32:00,74.0,70.0,29.91,SW,217,0.0,4.0,87,0.01,,,0.06,,2013-07-20 00:32:00,
2013-07-19 20:43:00,74.0,70.0,29.91,WNW,283,1.0,4.0,86,0.01,,,0.06,,2013-07-20 00:43:00,
2013-07-19 20:52:00,74.0,70.0,29.92,South,184,1.0,3.0,87,0.01,,,0.06,,2013-07-20 00:52:00,
2013-07-19 21:01:00,74.0,70.0,29.93,SW,233,0.0,2.0,87,0.00,,,0.06,,2013-07-20 01:01:00,
2013-07-19 21:32:00,74.0,70.0,29.96,WNW,284,1.0,4.0,88,0.00,,,0.06,,2013-07-20 01:32:00,
2013-07-19 21:52:00,73.0,70.0,29.96,WSW,247,2.0,5.0,89,0.00,,,0.06,,2013-07-20 01:52:00,
2013-07-19 22:02:00,73.0,70.0,29.97,West,261,2.0,4.0,90,0.00,,,0.06,,2013-07-20 02:02:00,
2013-07-19 22:11:00,74.0,71.0,29.97,NW,307,1.0,6.0,91,0.00,,,0.06,,2013-07-20 02:11:00,
2013-07-19 22:22:00,74.0,71.0,29.97,SSE,161,1.0,4.0,91,0.00,,,0.06,,2013-07-20 02:22:00,
2013-07-19 22:43:00,73.0,70.0,29.97,WNW,286,1.0,5.0,91,0.00,,,0.06,,2013-07-20 02:43:00,
2013-07-19 22:52:00,73.0,70.0,29.97,NW,306,1.0,7.0,91,0.00,,,0.06,,2013-07-20 02:52:00,
2013-07-19 23:02:00,73.0,70.0,29.96,WNW,297,0.0,5.0,91,0.00,,,0.06,,2013-07-20 03:02:00,
2013-07-19 23:44:00,74.0,70.0,29.94,WSW,258,1.0,5.0,88,0.00,,,0.06,,2013-07-20 03:44:00,